TimePST,TemperatureF,Dew PointF,Humidity,Sea Level PressureIn,VisibilityMPH,Wind Direction,Wind SpeedMPH,Gust SpeedMPH,PrecipitationIn,Events,Conditions,WindDirDegrees,DateUTC
1:14 AM,48.2,48.2,100,30.49,2.5,Calm,Calm,-,0.01,,Partly Cloudy,0,2013-03-01 09:14:00
1:20 AM,46.4,46.4,100,30.49,1.0,Calm,Calm,-,0.01,,Mostly Cloudy,0,2013-03-01 09:20:00
1:53 AM,46.9,46.9,100,30.51,8.0,Calm,Calm,-,0.01,,Mostly Cloudy,0,2013-03-01 09:53:00
2:53 AM,48.9,48.0,97,30.51,8.0,Calm,Calm,-,N/A,,Overcast,0,2013-03-01 10:53:00
3:13 AM,48.2,48.2,100,30.49,1.5,Calm,Calm,-,N/A,,Overcast,0,2013-03-01 11:13:00
3:26 AM,48.2,48.2,100,30.49,0.5,Calm,Calm,-,N/A,Fog,Fog,0,2013-03-01 11:26:00
3:34 AM,48.2,48.2,100,30.49,0.2,Calm,Calm,-,N/A,Fog,Fog,0,2013-03-01 11:34:00
4:04 AM,48.2,48.2,100,30.49,0.5,Calm,Calm,-,N/A,Fog,Fog,0,2013-03-01 12:04:00
4:49 AM,48.2,48.2,100,30.49,0.2,Calm,Calm,-,N/A,Fog,Fog,0,2013-03-01 12:49:00
4:53 AM,48.0,48.0,100,30.50,0.2,Calm,Calm,-,N/A,Fog,Fog,0,2013-03-01 12:53:00
5:42 AM,48.2,48.2,100,30.48,0.5,Calm,Calm,-,N/A,Fog,Fog,0,2013-03-01 13:42:00
5:53 AM,46.9,46.9,100,30.48,1.8,Calm,Calm,-,N/A,,Overcast,0,2013-03-01 13:53:00
6:16 AM,46.4,46.4,100,30.48,0.5,Calm,Calm,-,N/A,Fog,Fog,0,2013-03-01 14:16:00
6:53 AM,46.9,46.9,100,30.48,0.5,Calm,Calm,-,N/A,Fog,Fog,0,2013-03-01 14:53:00
7:00 AM,46.4,46.4,100,30.48,0.2,Calm,Calm,-,N/A,Fog,Fog,0,2013-03-01 15:00:00
7:53 AM,46.9,46.9,100,30.47,0.2,Calm,Calm,-,N/A,Fog,Fog,0,2013-03-01 15:53:00
8:15 AM,46.4,46.4,100,30.46,0.8,South,3.5,-,N/A,,Mist,170,2013-03-01 16:15:00
8:23 AM,46.4,46.4,100,30.46,1.0,Calm,Calm,-,N/A,,Overcast,0,2013-03-01 16:23:00
8:29 AM,46.4,46.4,100,30.47,0.2,Calm,Calm,-,N/A,Fog,Fog,0,2013-03-01 16:29:00
8:53 AM,46.9,46.9,100,30.47,0.2,Calm,Calm,-,N/A,Fog,Fog,0,2013-03-01 16:53:00
9:02 AM,46.4,46.4,100,30.47,1.0,Calm,Calm,-,N/A,,Overcast,0,2013-03-01 17:02:00
9:06 AM,46.4,46.4,100,30.47,3.0,Calm,Calm,-,N/A,,Overcast,0,2013-03-01 17:06:00
9:48 AM,50.0,48.2,94,30.47,10.0,Calm,Calm,-,N/A,,Mostly Cloudy,0,2013-03-01 17:48:00
9:53 AM,50.0,48.0,93,30.48,10.0,Calm,Calm,-,N/A,,Mostly Cloudy,0,2013-03-01 17:53:00
10:08 AM,51.8,48.2,88,30.47,10.0,Calm,Calm,-,N/A,,Partly Cloudy,0,2013-03-01 18:08:00
10:53 AM,53.1,46.9,80,30.47,10.0,Calm,Calm,-,N/A,,Clear,0,2013-03-01 18:53:00
11:53 AM,57.9,48.0,70,30.46,10.0,Calm,Calm,-,N/A,,Clear,0,2013-03-01 19:53:00
1:53 PM,62.1,48.9,62,30.40,10.0,Variable,4.6,-,N/A,,Clear,0,2013-03-01 21:53:00
2:53 PM,64.0,48.0,56,30.37,10.0,Calm,Calm,-,N/A,,Clear,0,2013-03-01 22:53:00
3:53 PM,63.0,46.0,54,30.36,10.0,NW,6.9,-,N/A,,Clear,310,2013-03-01 23:53:00
4:53 PM,63.0,45.0,52,30.34,10.0,NNW,3.5,-,N/A,,Clear,340,2013-03-02 00:53:00
5:53 PM,61.0,48.0,62,30.33,10.0,Calm,Calm,-,N/A,,Clear,0,2013-03-02 01:53:00
6:53 PM,55.9,48.0,75,30.32,10.0,Calm,Calm,-,N/A,,Clear,0,2013-03-02 02:53:00
7:53 PM,53.1,46.9,80,30.33,10.0,Calm,Calm,-,N/A,,Clear,0,2013-03-02 03:53:00
8:53 PM,52.0,46.9,83,30.34,10.0,Calm,Calm,-,N/A,,Clear,0,2013-03-02 04:53:00
9:53 PM,51.1,46.0,83,30.33,10.0,Calm,Calm,-,N/A,,Clear,0,2013-03-02 05:53:00
10:53 PM,50.0,46.0,86,30.33,10.0,Calm,Calm,-,N/A,,Clear,0,2013-03-02 06:53:00
11:53 PM,48.9,46.0,90,30.32,10.0,Calm,Calm,-,N/A,,Partly Cloudy,0,2013-03-02 07:53:00